W5CI Weather Reports


time (UTC)temp
C
wind
direction
speed
KPH
gust
KPH
rain 1hr
cm
rain 24hr
cm
rain mn
cm
humidity
%
barometer
mb
20260505004531 23 155 1.6 6.4 0.00 0.00 0.00 56 1008.0
20260505003035 23 172 3.2 8.0 0.00 0.00 0.00 54 1007.9
20260505001540 23 174 4.8 11.3 0.00 0.00 0.00 54 1007.8
20260505000039 24 176 3.2 6.4 0.00 0.00 0.00 53 1008.0
20260504234533 25 138 4.8 9.7 0.00 0.00 0.00 52 1008.2
20260504233032 25 170 4.8 9.7 0.00 0.00 0.00 50 1008.3
20260504231540 25 253 4.8 11.3 0.00 0.00 0.00 49 1008.6
20260504230035 26 233 8.0 19.3 0.00 0.00 0.00 46 1008.8
20260504224535 26 226 4.8 19.3 0.00 0.00 0.00 46 1008.8
20260504223033 26 160 6.4 14.5 0.00 0.00 0.00 46 1008.7
20260504221531 26 160 6.4 14.5 0.00 0.00 0.00 47 1008.8
20260504220035 26 171 6.4 14.5 0.00 0.00 0.00 47 1008.9
20260504214530 26 197 6.4 16.1 0.00 0.00 0.00 44 1009.0
20260504213034 26 167 9.7 16.1 0.00 0.00 0.00 45 1009.1
20260504211532 26 173 8.0 17.7 0.00 0.00 0.00 47 1009.3
20260504210050 26 165 6.4 16.1 0.00 0.00 0.00 48 1009.5
20260504204534 26 239 6.4 22.5 0.00 0.00 0.00 47 1009.8
20260504203034 26 242 8.0 17.7 0.00 0.00 0.00 46 1010.1
20260504201535 26 183 9.7 17.7 0.00 0.00 0.00 45 1010.3
20260504200033 26 218 8.0 17.7 0.00 0.00 0.00 47 1010.6
20260504194550 26 176 8.0 17.7 0.00 0.00 0.00 46 1010.8
20260504193032 26 240 8.0 19.3 0.00 0.00 0.00 47 1010.8
20260504191540 26 149 8.0 22.5 0.00 0.00 0.00 47 1011.2
20260504190035 26 184 6.4 19.3 0.00 0.00 0.00 48 1011.3
20260504184539 25 150 9.7 25.7 0.00 0.00 0.00 47 1011.4
20260504183032 25 180 6.4 17.7 0.00 0.00 0.00 50 1011.6
20260504181539 25 205 9.7 20.9 0.00 0.00 0.00 49 1011.9
20260504180055 25 198 4.8 16.1 0.00 0.00 0.00 50 1012.0
20260504174530 24 160 6.4 20.9 0.00 0.00 0.00 53 1012.3
20260504173036 24 248 9.7 19.3 0.00 0.00 0.00 51 1012.5
20260504171532 23 245 8.0 17.7 0.00 0.00 0.00 53 1012.7
20260504081531 17 208 1.6 4.8 0.00 0.00 0.00 73 1013.3
20260504044536 18 143 1.6 3.2 0.00 0.00 0.00 69 1014.2
20260504043034 19 158 0.0 3.2 0.00 0.00 0.00 67 1014.4
20260504041536 19 165 1.6 3.2 0.00 0.00 0.00 67 1014.4
20260504040034 19 152 1.6 3.2 0.00 0.00 0.00 66 1014.6
20260504034547 20 156 1.6 3.2 0.00 0.00 0.00 65 1014.6
20260504033036 20 239 3.2 4.8 0.00 0.00 0.00 65 1014.5
20260504031545 20 165 1.6 4.8 0.00 0.00 0.00 64 1014.6
20260504030040 20 172 1.6 4.8 0.00 0.00 0.00 63 1014.4
20260504024542 20 155 1.6 4.8 0.00 0.00 0.00 63 1014.5
20260504023034 20 152 1.6 3.2 0.00 0.00 0.00 66 1014.3
20260504021532 20 136 1.6 3.2 0.00 0.00 0.00 66 1014.3
20260504020038 20 133 0.0 1.6 0.00 0.00 0.00 64 1014.4
20260504014532 21 140 1.6 1.6 0.00 0.00 0.00 62 1014.2
20260504013037 21 145 0.0 3.2 0.00 0.00 0.00 59 1014.2
20260504011533 21 150 0.0 1.6 0.00 0.00 0.00 57 1014.2
20260504010042 22 155 0.0 1.6 0.00 0.00 0.00 56 1014.1